Regional Weather Roundup
Issued by NWS

Home | Current Version | Previous Version | Graphics & Text | Print | Product List | Glossary On
Versions: 1 2 3 4 5 6 7 8 9 10 11 12 13 14 15 16 17 18 19 20 21 22 23 24 25 26 27 28 29 30 31 32 33 34 35 36 37 38 39 40 41 42 43 44 45 46 47 48 49 50
000
ASUS43 KBIS 201210
RWRND

NORTH DAKOTA REGIONAL WEATHER ROUNDUP
NATIONAL WEATHER SERVICE BISMARCK ND
700 AM CDT WED SEP 20 2017

NOTE: "FAIR" INDICATES FEW OR NO CLOUDS BELOW 12,000 FEET WITH NO
SIGNIFICANT WEATHER AND/OR OBSTRUCTIONS TO VISIBILITY.


NDZ001>003-009>011-017-201300-
NORTHWEST NORTH DAKOTA

CITY           SKY/WX    TMP DP  RH WIND       PRES   REMARKS
WILLISTON      CLEAR     41  38  89 S5        29.58S
6HR MIN TEMP:  39; 6HR MAX TEMP:  47;

MINOT          CLEAR     47  40  76 SW9       29.58R
MINOT AFB      CLEAR     44  40  84 SW8       29.56R
$$

NDZ018>021-031>035-040>046-201300-
SOUTHWEST NORTH DAKOTA

CITY           SKY/WX    TMP DP  RH WIND       PRES   REMARKS
BISMARCK       CLEAR     45  41  86 SW7       29.69R
6HR MIN TEMP:  38; 6HR MAX TEMP:  51;

DICKINSON      PTCLDY    41  38  89 SW9       29.66R
GARRISON         N/A     44  43  96 W9        29.62R
6HR MIN TEMP:  43; 6HR MAX TEMP:  49;

HETTINGER ARPT CLEAR     39  35  86 SW3       29.74R
$$

NDZ004>008-012>016-024-026-027-054-201300-
NORTHEAST NORTH DAKOTA

CITY           SKY/WX    TMP DP  RH WIND       PRES   REMARKS
GRAND FORKS    CLOUDY    54  52  93 W9        29.57R
GRND FRKS AFB  CLEAR     52  50  92 W9        29.58R
DEVILS LAKE    CLEAR     50  47  89 W15       29.60R
$$

NDZ022-023-025-028>030-036>039-047>053-201300-
SOUTHEAST NORTH DAKOTA

CITY           SKY/WX    TMP DP  RH WIND       PRES   REMARKS
FARGO          NOT AVBL
JAMESTOWN      CLEAR     48  42  80 W12       29.65R
$$





USA.gov is the U.S. government's official web portal to all federal, state and local government web resources and services.